Regional Weather Roundup
Issued by NWS Charleston, SC

Current Version | Previous Version | Graphics & Text | Print | Product List | Glossary On
Versions: 1 2 3 4 5 6 7 8 9 10 11 12 13 14 15 16 17 18 19 20 21 22 23 24 25 26 27 28 29 30 31 32 33 34 35 36 37 38 39 40 41 42 43 44 45 46 47 48 49 50
000
ASUS42 KCHS 021725
RWRCHS

REGIONAL WEATHER ROUNDUP
NATIONAL WEATHER SERVICE CHARLESTON SC
100 PM EDT TUE SEP 02 2014

NOTE: "FAIR" INDICATES FEW OR NO CLOUDS BELOW 12,000 FEET WITH NO
SIGNIFICANT WEATHER AND/OR OBSTRUCTIONS TO VISIBILITY.

NOT ALL STATIONS ARE QUALITY CONTROLLED BY THE NATIONAL
WEATHER SERVICE. USE DATA WITH CAUTION...ESPECIALLY
DEWPOINT OBSERVATIONS.

SCZ027-030-031-034>040-042>050-021800-
...SOUTH CAROLINA...

CITY           SKY/WX    TMP DP  RH WIND       PRES   REMARKS
N CHARLESTON   PTSUNNY   93  72  50 VRB7      30.08S HX 101
WATERFRONT PRK   N/A     86 N/A N/A S13G20      N/A
FORT JOHNSON   NOT AVBL
MOUNT PLEASANT FAIR      90  77  66 S12       30.09R HX 102
JOHNS ISLAND   MOSUNNY   91  73  55 S10       30.09S HX 100
PINOPOLIS        N/A     91  77  62 CALM      30.01S HX 105
MONCKS CORNER    N/A     93  77  59 S5        30.07S HX 107
SUMMERVILLE    FAIR      90  75  62 CALM      30.08S HX 100
BEAUFORT MCAS  PTSUNNY   93  73  52 SW6       30.07F HX 102
BEAUFORT ARPT  FAIR      90  77  66 SE8       30.07F HX 102
HILTON HEAD IS SUNNY     86  77  74 S7        30.10S HX  97
GEORGETOWN     NOT AVBL
WALTERBORO     PTSUNNY   91  68  46 SE5       30.08R HX  95
ORANGEBURG     MOSUNNY   90  73  57 W5        30.07F HX  98
BARNWELL       FAIR      91  75  59 SE5       30.08S HX 102
AIKEN          FAIR      91  73  55 S6        30.11F HX 100
MANNING        FAIR      91  77  62 SE7       30.07S HX 105
KINGSTREE      NOT AVBL
COLUMBIA       MOSUNNY   94  69  44 SE8       30.05F HX  99
SUMTER         SUNNY     93  71  48 W6        30.05F HX  99
FLORENCE       MOSUNNY   94  73  50 SE6       30.05F HX 103
MYRTLE BEACH   MOSUNNY   90  75  62 S12       30.08S HX 100
N MYRTLE BEACH SUNNY     88  77  69 S10       30.08S HX 100

$$

GAZ063-065-086>088-099>101-113>116-118-119-134-136>141-150-021800-
...GEORGIA...

CITY           SKY/WX    TMP DP  RH WIND       PRES   REMARKS
SAVANNAH ARPT  PTSUNNY   94  74  52 SE7       30.07F HX 104
HUNTER AAF     PTSUNNY   91  77  62 SE8       30.06F THUNDER HX 105
FORT STEWART   MOSUNNY   93  73  52 VRB5      30.06F HX 102
STATESBORO     NOT AVBL
SYLVANIA       PTSUNNY   94  79  62 SW5       30.07F HX 111
CLAXTON        FAIR      90  79  70 NW7       30.07F HX 105
THOMSON        MOSUNNY   92  76  60 W8        30.12F HX 104
AUGUSTA-BUSH   MOSUNNY   91  73  55 VRB6      30.07F HX  99
AUGUSTA-DANIEL MOSUNNY   90  71  53 VRB3      30.09F HX  96
SWAINSBORO     FAIR      91  77  62 SW3       30.08F HX 105
VIDALIA          N/A     84  73  70 N3        30.09F HX  91
ALMA           MOSUNNY   88  73  61 W3        30.09F HX  95
WAYCROSS       MOSUNNY   93  78  62 NE5       30.07F HX 108
JESUP            N/A     95  77  55 NW5       30.07F HX 109
BRUNSWICK      MOSUNNY   91  72  52 SE7       30.08F HX  98
SAINT SIMONS   MOSUNNY   88  76  67 SE9       30.08F HX  99

$$

SCZ027-028-034-036>038-045-046-048>050-GAZ119-141-021800-
...LAKE AND SUPPLEMENTAL COASTAL OBSERVATIONS...

STATION/POSITION TIME  TEMP    WIND        PRES    WAVE   SWELL
                       AIR SEA DIR/SP/G            HT/PER HT/PER/DIR
                 (UTC) (F)     (DEG/KT/KT) (MB)    (FT/S) (FT/S/D)
UPR LAKE MARION  NOT AVBL
WINYAH BAY       1700   85     140/  8     1018.0S
LAKE MURRAY      1600   87     220/  8/ 10 1017.6S
ACE BASIN NERRS  1700   90     180/  2     1019.0S
FORT PULASKI     1700   86     130/  8/ 13 1018.8F
SAPELO ISLAND    1700   93     140/  7     1020.0S

$$

ANZ835-935-AMZ111-154-330-350-352-354-374-450-454-472-021800-
...C-MAN AND BUOY OBSERVATIONS...

STATION/POSITION TIME  TEMP    WIND        PRES    WAVE   SWELL
                       AIR SEA DIR/SP/G            HT/PER HT/PER/DIR
                 (UTC) (F)     (DEG/KT/KT) (MB)    (FT/S) (FT/S/D)
FOLLY BEACH CMAN 1700   85     180/ 11/ 12 1019.4R
BUOY 41004       1700   83 84  170/  8/ 10 1018.9F   2/ 8   2/ 8
BUOY 41008       1700   84 85  190/  8/ 10 1018.9F   2/ 9   2/100/ 9
5E ST. MARYS GA  1700      85                N/A     2/ 9
FRYING PAN BUOY  NOT AVBL
BUOY 41025       1700   81     210/ 12/ 14 1017.9F   3/ 4   2/110/ 9
CAPE LOOKOUT NC  1700   83     210/ 10/ 12 1018.5R
BUOY 41002       1615   82 84  210/  6/  8 1021.1F   3/13   3/ 90/13
BUOY 41010       1700   83 85  120/  8/ 10 1019.6S   3/12   3/ 30/12
BUOY 41012       NOT AVBL
ST AUGUSTINE FL  1700   83     120/ 10/ 10 1020.1S
CAPERS NEARSHORE 1600   84     160/  8/  8   N/A
FRIPP NEARSHORE  NOT AVBL


$$


USA.gov is the U.S. government's official web portal to all federal, state and local government web resources and services.